Home > Weather > Euskirchen > Past weeks

Flag for Germany Past Weather in Euskirchen, North Rhine-Westphalia, Germany — Yesterday and Last 2 Weeks

Now
86 °F

Warm.


Feels Like: 87 °F
Forecast: 59 / 72 °F
Wind: 20 mph from Northwest

Location: Noervenich

Current Time: Aug 28, 2016 at 2:29:59 PM

Latest Report: Aug 28, 2016 at 1:20 PM


Visibility: 5 mi

Pressure: 29.89 "Hg

Humidity: 49%

Dew Point: 64 °F

Location of EuskirchenLocation

Past Weather in Euskirchen — Graph

°F

Euskirchen Temperature Yesterday

Maximum temperature yesterday: 90 °F (at 2:20 PM)
Minimum temperature yesterday: 64 °F (at 6:20 AM)
Average temperature yesterday: 76 °F

High & Low Weather Summary for the Past Weeks

 TemperatureHumidityPressure
High91 °F (Aug 25, 3:20 PM)100% (Aug 14, 5:20 AM)30.33 "Hg (Aug 14, 5:20 AM)
Low50 °F (Aug 16, 6:20 AM)32% (Aug 25, 5:20 PM)29.77 "Hg (Aug 18, 4:20 PM)
Average69 °F67%30.06 "Hg
* Reported Aug 13 12:20 PM — Aug 28 12:20 PM, Euskirchen, Weather by CustomWeather, © 2016

Note: Actual official high and low records may vary slightly from our data, if they occured in-between our weather recording intervals... More about our weather records

Advertising

Euskirchen Weather History for the Previous 24 Hours

Scroll right to see more
 ConditionsComfort  
Time TempWeatherWind HumidityBarometerVisibility
12:20 PM
Sun, Aug 28
90 °FHot.18 mph36%29.89 "Hg5 mi
11:20 AM90 °FHot.13 mph36%29.89 "Hg5 mi
10:20 AM86 °FWarm.8 mph43%29.92 "Hg4 mi
9:20 AM81 °FWarm.6 mph54%29.92 "Hg4 mi
8:20 AM73 °FMild.3 mph65%29.92 "Hg5 mi
7:20 AM66 °FMild.3 mph83%29.92 "Hg6 mi
6:20 AM68 °FMild.2 mph73%29.92 "Hg6 mi
5:20 AM72 °FMild.7 mph65%29.92 "Hg5 mi
4:20 AM73 °FMild.3 mph61%29.92 "HgN/A
3:20 AM75 °FMild.5 mph57%29.95 "HgN/A
2:20 AM73 °FMild.6 mph65%29.95 "Hg6 mi
1:20 AM77 °FWarm.6 mph57%29.95 "Hg6 mi
12:20 AM81 °FWarm.10 mph42%29.95 "HgN/A
11:20 PM
Sat, Aug 27
77 °FWarm.5 mph57%29.95 "HgN/A
10:20 PM75 °FMild.6 mph69%29.95 "Hg6 mi
9:20 PM77 °FWarm.3 mph69%29.95 "Hg5 mi
8:20 PM81 °FWarm.2 mph70%29.95 "Hg5 mi
7:20 PM84 °FWarm.2 mph62%29.95 "Hg5 mi
6:20 PM86 °FWarm.2 mph59%29.98 "Hg5 mi
5:20 PM81 °FWarm.5 mph58%29.98 "Hg6 mi
4:20 PM77 °FWarm.15 mph74%30.01 "Hg5 mi
3:20 PM86 °FWarm.6 mph62%30.01 "Hg4 mi
2:20 PM90 °FHot.7 mph49%30.04 "Hg4 mi
Weather by CustomWeather, © 2016

See weather overviewHow to use our weather pages